Showing default

HORYU 2, 38340

Orbit data source: Space-Track

HORYU 2, 38340 is a payload satellite owned by Kyutech (JP) in SSO that was launched on Thu, 17 May 2012 UTC via an H-IIA 202 launch vehicle from the Tanegashima Space Center (TNSTA). Payload-class satellites include a variety of spacecraft equipped with specific instruments for various scientific and technological missions. These include communications satellites like Starlink; space stations such as the ISS; scientific satellites like the Hubble; Earth observation satellites from companies like Planet Labs, Umbra, and HawkEye 360; GPS; miniature CubeSats for education and research; and military/defense satellites.

Loading next visibility...
Identifier
38340, 2012-025D
Orbit
SSO
Country
Flag of JPJP / JPN
Related business
Manufacturer
Kyutech
Mission
Non-operational Amateur Technology
Bus & Motor
HORYU, Unknown motor
Mass
7 kg wet, 7 kg dry
Launch date (UTC)
2012-05-17 (14 years ago)
Launch vehicle
H-IIA 202
Launch site
Tanegashima Space Center (TNSTA)
Object type
Payload
Rocket body
Debris
Shape & HBR
Box, 0.1 m
Radar Cross Section
0.135 m², Small (<0.1 m²)

Expand to show TLE details & history
Last TLE update: 12 hours ago

TLE from 12 hours ago
0 HORYU 2
1 38340U 12025D   25349.81750131  .00003325  00000-0  35517-3 0  9994
2 38340  98.1952 110.7442 0009302  65.5517 294.6668 14.89495961721418
Epoch: 2025-12-15T19:37Z
TLE epoch observation values (Epoch: 2025-12-15T19:37:12.113Z)
Latitude
-0.00007°
Longitude
91.73312°
Altitude
599.83 km
Speed
7.561 km/s
True Right ascension
07h 22m 58s
True Declination
0° 00' 00"
Sunlit
Object was in full shadow at epoch
Visualization orbit readout
Latitude
Unknown
Longitude
Unknown
Altitude
Unknown
Speed
Unknown
Apparent Right ascension
Unknown
Apparent Declination
Unknown
Sunlit
N/A
Visualization observer readout
Local Sidereal Time
06:16:27
Azimuth
Unknown
Elevation
Unknown
Doppler factor
Unknown
Orbital elements
Apogee altitude
603.039 km
Perigee altitude
590.063 km
Semi-major axis
6,974.688 km
Eccentricity
0.00093
Inclination
98.1952°
RAAN
110.7442°
Arg. of periapsis
65.5517°
True anomaly
294.56989°
Mean anomaly
294.6668°
Eccentric anomaly
294.61835°
Mean motion
3.72611 °/min
Orbital period
96.62 mins
BSTAR
0.00035517
Loading maneuver chart data...
Computing Atmospheric mass density...
Loading historical data...
Loading historical data...
Loading historical data...
Loading historical data...
Loading historical data...
Loading historical data...
Loading historical data...

Documentation

Showing up to 5 results
|